Location: Canazei
(46.4667°N, 11.7667°E)
Time: 16:29:55
(UTC+00:00)

Envisat - Visible Passes

Search period start: 26 September 2021 00:00
Search period end: 06 October 2021 00:00
Orbit: 764 x 766 km, 98.2° (Epoch: 25 September)

Date Brightness Start Highest point End Pass type
(mag) Time Alt. Az. Time Alt. Az. Time Alt. Az.
26 Sep 5.6 03:22:41 10° NE 03:26:33 21° E 03:30:22 10° SE visible
27 Sep 3.3 04:23:59 10° NNE 04:29:05 75° ESE 04:34:09 10° S visible
28 Sep 4.7 03:47:26 10° NNE 03:52:06 35° E 03:56:43 10° SSE visible
29 Sep 5.9 03:11:36 10° NE 03:14:54 17° E 03:18:11 10° SE visible
30 Sep 3.7 04:12:30 10° NNE 04:17:33 60° E 04:22:33 10° S visible
01 Oct 5.1 03:36:07 10° NE 03:40:30 28° E 03:44:51 10° SSE visible
02 Oct 6.0 03:00:45 10° ENE 03:03:14 14° E 03:05:43 10° ESE visible
02 Oct 3.0 04:37:47 10° NNE 04:42:55 83° WNW 04:47:59 10° SSW visible
03 Oct 4.1 04:01:04 10° NNE 04:06:00 47° E 04:10:53 10° S visible
04 Oct 5.5 03:24:53 10° NE 03:28:53 23° E 03:32:52 10° SE visible
05 Oct 6.3 02:50:37 10° ENE 02:51:33 10° E 02:52:29 10° E visible
05 Oct 3.2 04:26:16 10° NNE 04:31:23 80° ESE 04:36:28 10° S visible
